Fort Irwin/Barstow, Bicycle L, CA

12:14 PM PDT on October 18, 2019 (GMT -0700)
Fort Irwin/Barstow, Bicycle L

Weather History for KBYS - September, 2019

Change the Weather History Date:

Monday, September 16, 2019

  Actual Average (KDAG) Record (KDAG)
Temperature  
Mean Temperature 80 °F -  
Max Temperature 91 °F 94 °F 108 °F (2000)
Min Temperature 68 °F 66 °F 52 °F (1959)
Cooling Degree Days 15    
Growing Degree Days 30 (Base 50)    
Moisture  
Dew Point 28 °F    
Average Humidity 16    
Maximum Humidity 35    
Minimum Humidity 7    
Precipitation  
Precipitation 0.00 in - - ()
Sea Level Pressure  
Sea Level Pressure 29.80 in    
Wind  
Wind Speed 12 mph (SSW)    
Max Wind Speed 32 mph    
Max Gust Speed 36 mph    
Visibility 10 miles    
Events      
Averages and records for this station are not official NWS values.
T = Trace of Precipitation, MM = Missing Value Source: NWS Daily Summary

Daily Weather History Graph

Daily Weather History Graph

Search for Another Location

Airport or City:

Astronomy

Sep. 16, 2019 Rise Set
Actual Time 6:29 AM PDT 6:52 PM PDT
Civil Twilight 6:04 AM PDT 7:17 PM PDT
Nautical Twilight 5:34 AM PDT 7:47 PM PDT
Astronomical Twilight 5:04 AM PDT 8:17 PM PDT
Moon 8:33 PM PDT (9/16) 8:37 AM PDT (9/16)
Length of Visible Light 13h 13m
Length of Day
12h 22m
Waning Gibbous, 94% of the Moon is Illuminated
Sep 16
Waning Gibbous
Sep 21
Last Quarter
Sep 28
New
Oct 5
First Quarter
Oct 13
Full

Hourly Weather History & Observations

Time (PDT) Temp. Dew Point Humidity Pressure Visibility Wind Dir Wind Speed Gust Speed Precip Events Conditions
12:58 AM 77.2 °F 30.4 °F 18% 29.80 in 10.0 mi SW 10.4 mph - N/A   Clear
1:58 AM 75.4 °F 31.8 °F 20% 29.81 in 6.0 mi WNW 6.9 mph - N/A   Haze
2:58 AM 73.4 °F 32.2 °F 22% 29.80 in 9.0 mi Calm Calm - N/A   Clear
3:58 AM 72.9 °F 32.5 °F 23% 29.80 in 10.0 mi NNE 3.5 mph - N/A   Clear
4:58 AM 71.4 °F 32.9 °F 24% 29.80 in 10.0 mi South 10.4 mph - N/A   Clear
5:58 AM 70.0 °F 31.5 °F 24% 29.81 in 10.0 mi South 9.2 mph - N/A   Scattered Clouds
6:58 AM 72.3 °F 30.2 °F 21% 29.83 in 10.0 mi SSE 8.1 mph - N/A   Clear
7:58 AM 74.5 °F 30.7 °F 20% 29.85 in 10.0 mi SSW 4.6 mph - N/A   Clear
8:58 AM 79.7 °F 29.8 °F 16% 29.86 in 10.0 mi SSW 5.8 mph - N/A   Clear
9:58 AM 82.8 °F 29.1 °F 14% 29.86 in 10.0 mi SSW 9.2 mph - N/A   Clear
10:58 AM 86.2 °F 23.2 °F 10% 29.83 in 10.0 mi South 17.3 mph 21.9 mph N/A   Clear
11:10 AM 86.0 °F 23.0 °F 10% 29.82 in 10.0 mi SSW 15.0 mph - N/A   Clear
11:58 AM 86.5 °F 23.5 °F 10% 29.81 in 10.0 mi SSE 13.8 mph - N/A   Scattered Clouds
12:58 PM 88.2 °F 24.8 °F 10% 29.80 in 10.0 mi South 17.3 mph - N/A   Clear
1:09 PM 87.8 °F 24.8 °F 10% 29.80 in 10.0 mi South 15.0 mph - N/A   Clear
1:58 PM 90.0 °F 23.5 °F 9% 29.78 in 10.0 mi SSW 19.6 mph 29.9 mph N/A   Partly Cloudy
2:48 PM 89.6 °F 24.8 °F 10% 29.75 in 10.0 mi SW 21.9 mph 28.8 mph N/A   Scattered Clouds
2:58 PM 90.9 °F 24.3 °F 9% 29.75 in 10.0 mi SW 18.4 mph 28.8 mph N/A   Partly Cloudy
3:58 PM 87.1 °F 32.0 °F 14% 29.75 in 8.0 mi WSW 32.2 mph 35.7 mph N/A   Partly Cloudy
4:58 PM 85.6 °F 19.2 °F 9% 29.76 in 10.0 mi SW 20.7 mph 29.9 mph N/A   Partly Cloudy
5:58 PM 85.3 °F 14.2 °F 7% 29.75 in 9.0 mi SW 24.2 mph 27.6 mph N/A   Clear
6:58 PM 81.5 °F 19.6 °F 10% 29.75 in 10.0 mi SW 19.6 mph - N/A   Clear
7:58 PM 78.8 °F 28.9 °F 16% 29.77 in 10.0 mi SSW 15.0 mph - N/A   Clear
8:58 PM 76.1 °F 35.6 °F 23% 29.77 in 10.0 mi SSW 16.1 mph - N/A   Clear
9:58 PM 73.2 °F 33.1 °F 23% 29.79 in 10.0 mi SSW 16.1 mph - N/A   Clear
10:58 PM 71.4 °F 36.0 °F 27% 29.81 in 10.0 mi SSW 10.4 mph - N/A   Clear
11:58 PM 68.7 °F 40.1 °F 35% 29.82 in 10.0 mi South 15.0 mph - N/A   Clear